Location: Amsterdam
(30.7274°N, 84.4357°W)
Time: 06:53:59
(UTC+00:00)

Courier 1B Rocket - Pass Details

Date: 07 February 2026
Orbit: 920 x 1201 km, 28.2° (Epoch: 9 March)

Event Time Altitude Azimuth Distance (km) Brightness Sun altitude
Rises 05:37:54 0° 252° (WSW) 3,838 - -74.2°
Reaches altitude 10° 05:40:35 10° 249° (WSW) 2,924 - -74.4°
Maximum altitude 05:47:44 65° 169° (S) 1,238 - -74.5°
Drops below altitude 10° 05:55:22 10° 89° (E) 3,099 - -74.5°
Sets 05:58:17 0° 87° (E) 4,080 - -74.5°
